• în Republica Moldova
  • Lista ţărilor
  • Pe 7 zile
  • Temperatura apei
  • Hartă satelitară
  • Meteo pe hartă
  • Widget-uri
  • user-avatar
    Intrare

    Meteo pe oră la Lilyugino

    Astăzi, 25 Septembrie, Marţi

    Timp Temperatura Precipitaţii Vânt Presiune Umiditate
    00:00 +5°C° 1.3 mm 6 m/s 727 mmHg 93%
    01:00 +5°C° 1.3 mm 7 m/s 727 mmHg 92%
    02:00 +6°C° 0 mm 5 m/s 728 mmHg 91%
    03:00 +5°C° 0.4 mm 6 m/s 729 mmHg 91%
    04:00 +5°C° 0.4 mm 6 m/s 730 mmHg 90%
    05:00 +5°C° 0.4 mm 7 m/s 730 mmHg 89%
    06:00 +4°C° 0.1 mm 7 m/s 731 mmHg 88%
    07:00 +4°C° 0.1 mm 6 m/s 732 mmHg 87%
    08:00 +4°C° 0 mm 6 m/s 733 mmHg 86%
    09:00 +4°C° 0 mm 6 m/s 734 mmHg 84%
    10:00 +4°C° 0 mm 6 m/s 735 mmHg 83%
    11:00 +5°C° 0 mm 6 m/s 736 mmHg 81%
    12:00 +5°C° 0 mm 6 m/s 736 mmHg 78%
    13:00 +5°C° 0 mm 6 m/s 737 mmHg 74%
    14:00 +7°C° 0 mm 5 m/s 738 mmHg 71%
    15:00 +7°C° 0 mm 5 m/s 739 mmHg 72%
    16:00 +7°C° 0 mm 4 m/s 739 mmHg 73%
    17:00 +6°C° 0 mm 4 m/s 740 mmHg 73%
    18:00 +5°C° 0 mm 4 m/s 741 mmHg 76%
    19:00 +5°C° 0 mm 4 m/s 741 mmHg 79%
    20:00 +4°C° 0 mm 4 m/s 742 mmHg 82%
    21:00 +3°C° 0 mm 4 m/s 743 mmHg 82%
    22:00 +3°C° 0 mm 3 m/s 743 mmHg 83%
    23:00 +3°C° 0 mm 3 m/s 744 mmHg 83%

    Mâine, 26 Septembrie, Miercuri

    Timp Temperatura Precipitaţii Vânt Presiune Umiditate
    00:00 +2°C° 0 mm 3 m/s 745 mmHg 84%
    01:00 +2°C° 0 mm 3 m/s 745 mmHg 84%
    02:00 +1°C° 0 mm 3 m/s 746 mmHg 84%
    03:00 +1°C° 0 mm 3 m/s 746 mmHg 86%
    04:00 +1°C° 0 mm 3 m/s 746 mmHg 88%
    05:00 0°C° 0 mm 3 m/s 747 mmHg 89%
    06:00 +2°C° 0 mm 3 m/s 747 mmHg 86%
    07:00 +3°C° 0 mm 3 m/s 747 mmHg 84%
    08:00 +4°C° 0 mm 3 m/s 748 mmHg 81%
    09:00 +5°C° 0 mm 4 m/s 747 mmHg 74%
    10:00 +7°C° 0 mm 4 m/s 747 mmHg 68%
    11:00 +8°C° 0 mm 4 m/s 747 mmHg 61%
    12:00 +10°C° 0 mm 4 m/s 747 mmHg 59%
    13:00 +10°C° 0 mm 5 m/s 746 mmHg 57%
    14:00 +10°C° 0 mm 5 m/s 746 mmHg 55%
    15:00 +9°C° 0 mm 5 m/s 745 mmHg 59%
    16:00 +9°C° 0 mm 5 m/s 744 mmHg 62%
    17:00 +8°C° 0 mm 5 m/s 743 mmHg 66%
    18:00 +7°C° 0.4 mm 6 m/s 742 mmHg 71%
    19:00 +7°C° 0.4 mm 6 m/s 741 mmHg 77%
    20:00 +5°C° 0.4 mm 7 m/s 740 mmHg 82%
    21:00 +5°C° 1.1 mm 8 m/s 739 mmHg 84%
    22:00 +5°C° 1.1 mm 8 m/s 738 mmHg 86%
    23:00 +4°C° 1.1 mm 8 m/s 736 mmHg 88%

    Poimâine, 27 Septembrie, Joi

    Timp Temperatura Precipitaţii Vânt Presiune Umiditate
    00:00 +5°C° 0.6 mm 8 m/s 735 mmHg 88%
    01:00 +5°C° 0.6 mm 8 m/s 734 mmHg 89%
    02:00 +5°C° 0.6 mm 8 m/s 733 mmHg 89%
    03:00 +5°C° 1 mm 8 m/s 733 mmHg 90%
    04:00 +6°C° 1 mm 7 m/s 733 mmHg 91%
    05:00 +7°C° 1 mm 6 m/s 732 mmHg 91%
    06:00 +7°C° 0.3 mm 6 m/s 732 mmHg 89%
    07:00 +7°C° 0.3 mm 6 m/s 733 mmHg 87%
    08:00 +7°C° 0.3 mm 5 m/s 733 mmHg 85%
    09:00 +8°C° 0.1 mm 6 m/s 733 mmHg 78%
    10:00 +8°C° 0.1 mm 6 m/s 734 mmHg 72%
    11:00 +9°C° 0.1 mm 7 m/s 734 mmHg 65%
    12:00 +9°C° 0.2 mm 7 m/s 734 mmHg 65%
    13:00 +9°C° 0.2 mm 7 m/s 735 mmHg 64%
    14:00 +9°C° 0.2 mm 7 m/s 735 mmHg 64%
    15:00 +9°C° 0.1 mm 6 m/s 735 mmHg 66%
    16:00 +8°C° 0.1 mm 5 m/s 736 mmHg 69%
    17:00 +8°C° 0.1 mm 4 m/s 736 mmHg 71%
    18:00 +7°C° 0 mm 4 m/s 736 mmHg 72%
    19:00 +6°C° 0 mm 4 m/s 736 mmHg 73%
    20:00 +6°C° 0 mm 4 m/s 737 mmHg 74%
    21:00 +6°C° 0 mm 4 m/s 737 mmHg 75%
    22:00 +5°C° 0 mm 4 m/s 737 mmHg 76%
    23:00 +5°C° 0 mm 3 m/s 737 mmHg 77%

    28 Septembrie, Vineri

    Timp Temperatura Precipitaţii Vânt Presiune Umiditate
    00:00 +5°C° 0 mm 4 m/s 736 mmHg 78%
    01:00 +6°C° 0 mm 4 m/s 735 mmHg 78%
    02:00 +6°C° 0 mm 4 m/s 734 mmHg 79%
    03:00 +7°C° 0.6 mm 5 m/s 733 mmHg 82%
    04:00 +9°C° 0.6 mm 7 m/s 731 mmHg 85%
    05:00 +10°C° 0.6 mm 8 m/s 730 mmHg 88%
    06:00 +10°C° 1.4 mm 8 m/s 729 mmHg 88%
    07:00 +11°C° 1.4 mm 8 m/s 729 mmHg 87%
    08:00 +12°C° 1.4 mm 8 m/s 728 mmHg 87%
    09:00 +11°C° 1.1 mm 8 m/s 729 mmHg 86%
    10:00 +10°C° 1.1 mm 7 m/s 730 mmHg 86%
    11:00 +9°C° 1.1 mm 6 m/s 730 mmHg 85%
    12:00 +9°C° 0.1 mm 6 m/s 731 mmHg 83%
    13:00 +8°C° 0.1 mm 6 m/s 733 mmHg 80%
    14:00 +7°C° 0.1 mm 5 m/s 734 mmHg 77%
    15:00 +7°C° 0 mm 4 m/s 735 mmHg 79%
    16:00 +7°C° 0 mm 3 m/s 736 mmHg 80%
    17:00 +7°C° 0 mm 2 m/s 736 mmHg 81%
    18:00 +6°C° 0 mm 2 m/s 737 mmHg 85%
    19:00 +5°C° 0 mm 2 m/s 738 mmHg 89%
    20:00 +4°C° 0 mm 2 m/s 739 mmHg 93%
    21:00 +4°C° 0 mm 2 m/s 739 mmHg 94%
    22:00 +4°C° 0 mm 2 m/s 740 mmHg 95%
    23:00 +4°C° 0 mm 2 m/s 740 mmHg 95%

    29 Septembrie, Sâmbătă

    Timp Temperatura Precipitaţii Vânt Presiune Umiditate
    00:00 +3°C° 0 mm 2 m/s 741 mmHg 96%
    01:00 +3°C° 0 mm 2 m/s 741 mmHg 96%
    02:00 +3°C° 0 mm 2 m/s 742 mmHg 96%
    03:00 +2°C° 0 mm 2 m/s 742 mmHg 95%
    04:00 +2°C° 0 mm 2 m/s 743 mmHg 95%
    05:00 +1°C° 0 mm 2 m/s 743 mmHg 94%
    06:00 +2°C° 0 mm 2 m/s 744 mmHg 88%
    07:00 +3°C° 0 mm 2 m/s 744 mmHg 82%
    08:00 +4°C° 0 mm 2 m/s 745 mmHg 76%
    09:00 +4°C° 0 mm 3 m/s 746 mmHg 69%
    10:00 +5°C° 0 mm 3 m/s 746 mmHg 62%
    11:00 +7°C° 0 mm 3 m/s 747 mmHg 55%
    12:00 +7°C° 0 mm 3 m/s 747 mmHg 54%
    13:00 +8°C° 0 mm 3 m/s 747 mmHg 52%
    14:00 +7°C° 0 mm 4 m/s 747 mmHg 51%
    15:00 +7°C° 0 mm 3 m/s 748 mmHg 56%
    16:00 +6°C° 0 mm 2 m/s 748 mmHg 61%
    17:00 +5°C° 0 mm 2 m/s 748 mmHg 65%
    18:00 +4°C° 0 mm 2 m/s 748 mmHg 69%
    19:00 +3°C° 0 mm 1 m/s 749 mmHg 72%
    20:00 +2°C° 0 mm 1 m/s 750 mmHg 76%
    21:00 +2°C° 0 mm 1 m/s 750 mmHg 77%
    22:00 +2°C° 0 mm 1 m/s 750 mmHg 78%
    23:00 +2°C° 0 mm 1 m/s 750 mmHg 79%

    30 Septembrie, Duminică

    Timp Temperatura Precipitaţii Vânt Presiune Umiditate
    00:00 +1°C° 0 mm 1 m/s 750 mmHg 80%
    01:00 -1°C° 0 mm 2 m/s 750 mmHg 81%
    02:00 -1°C° 0 mm 2 m/s 751 mmHg 82%
    03:00 -1°C° 0 mm 2 m/s 750 mmHg 82%
    04:00 -1°C° 0 mm 2 m/s 750 mmHg 83%
    05:00 -1°C° 0 mm 2 m/s 750 mmHg 83%
    06:00 0°C° 0 mm 3 m/s 750 mmHg 78%
    07:00 +2°C° 0 mm 3 m/s 750 mmHg 72%
    08:00 +3°C° 0 mm 4 m/s 750 mmHg 67%
    09:00 +4°C° 0 mm 4 m/s 750 mmHg 62%
    10:00 +6°C° 0 mm 4 m/s 750 mmHg 56%
    11:00 +7°C° 0 mm 5 m/s 750 mmHg 50%
    12:00 +8°C° 0 mm 5 m/s 750 mmHg 49%
    13:00 +8°C° 0 mm 5 m/s 749 mmHg 48%
    14:00 +9°C° 0 mm 5 m/s 749 mmHg 47%
    15:00 +8°C° 0 mm 4 m/s 748 mmHg 52%
    16:00 +7°C° 0 mm 4 m/s 748 mmHg 57%
    17:00 +7°C° 0 mm 3 m/s 748 mmHg 62%
    18:00 +5°C° 0 mm 3 m/s 747 mmHg 64%
    19:00 +4°C° 0 mm 3 m/s 747 mmHg 66%
    20:00 +4°C° 0 mm 4 m/s 747 mmHg 68%
    21:00 +4°C° 0 mm 4 m/s 747 mmHg 69%
    22:00 +4°C° 0 mm 4 m/s 747 mmHg 71%
    23:00 +3°C° 0 mm 4 m/s 747 mmHg 72%
    Arată mai mult